Time,TemperatureF,DewpointF,PressureIn,WindDirection,WindDirectionDegrees,WindSpeedMPH,WindSpeedGustMPH,Humidity,HourlyPrecipIn,Conditions,Clouds,dailyrainin,SoftwareType,DateUTC
2013-07-06 00:00:00,73.6,64.0,29.61,SE,139,8.0,11.0,73,0.00,,,0.00,weatherlink.com 1.10,2013-07-06 05:00:00,
2013-07-06 00:15:00,73.2,64.0,29.61,SE,135,7.0,11.0,74,0.00,,,0.00,weatherlink.com 1.10,2013-07-06 05:15:00,
2013-07-06 00:30:00,72.7,64.0,29.61,SE,138,8.0,10.0,75,0.00,,,0.00,weatherlink.com 1.10,2013-07-06 05:30:00,
2013-07-06 00:45:00,72.4,64.0,29.61,ESE,120,9.0,12.0,75,0.00,,,0.00,weatherlink.com 1.10,2013-07-06 05:45:00,
2013-07-06 01:00:00,72.3,64.0,29.61,SSE,159,7.0,12.0,75,0.00,,,0.00,weatherlink.com 1.10,2013-07-06 06:00:00,
2013-07-06 01:15:00,72.1,64.0,29.61,SSE,149,5.0,11.0,75,0.00,,,0.00,weatherlink.com 1.10,2013-07-06 06:15:00,
2013-07-06 01:30:00,72.1,63.0,29.61,SE,134,8.0,12.0,74,0.00,,,0.00,weatherlink.com 1.10,2013-07-06 06:30:00,
2013-07-06 01:46:00,71.7,63.0,29.61,SSE,162,8.0,11.0,75,0.00,,,0.00,weatherlink.com 1.10,2013-07-06 06:46:00,
2013-07-06 02:00:00,71.3,63.0,29.62,SE,135,7.0,12.0,76,0.00,,,0.00,weatherlink.com 1.10,2013-07-06 07:00:00,
2013-07-06 02:15:00,71.2,63.0,29.61,ESE,112,12.0,14.0,76,0.00,,,0.00,weatherlink.com 1.10,2013-07-06 07:15:00,
2013-07-06 02:30:00,71.1,63.0,29.62,SE,136,9.0,12.0,76,0.00,,,0.00,weatherlink.com 1.10,2013-07-06 07:30:00,
2013-07-06 02:45:00,71.2,63.0,29.62,South,169,6.0,14.0,75,0.00,,,0.00,weatherlink.com 1.10,2013-07-06 07:45:00,
2013-07-06 03:00:00,71.3,63.0,29.62,SE,146,7.0,14.0,74,0.00,,,0.00,weatherlink.com 1.10,2013-07-06 08:00:00,
2013-07-06 03:15:00,71.4,63.0,29.62,SSE,150,8.0,14.0,74,0.00,,,0.00,weatherlink.com 1.10,2013-07-06 08:15:00,
2013-07-06 03:31:00,71.5,63.0,29.63,ESE,113,8.0,14.0,74,0.00,,,0.00,weatherlink.com 1.10,2013-07-06 08:31:00,
2013-07-06 03:46:00,71.3,63.0,29.63,South,169,8.0,12.0,74,0.00,,,0.00,weatherlink.com 1.10,2013-07-06 08:46:00,
2013-07-06 04:00:00,71.2,63.0,29.62,SSE,153,9.0,13.0,74,0.00,,,0.00,weatherlink.com 1.10,2013-07-06 09:00:00,
2013-07-06 04:15:00,71.0,62.0,29.62,SSE,165,9.0,10.0,74,0.00,,,0.00,weatherlink.com 1.10,2013-07-06 09:15:00,
2013-07-06 04:31:00,70.8,63.0,29.62,ESE,117,9.0,12.0,75,0.00,,,0.00,weatherlink.com 1.10,2013-07-06 09:31:00,
2013-07-06 04:45:00,70.5,62.0,29.61,SE,146,5.0,11.0,75,0.00,,,0.00,weatherlink.com 1.10,2013-07-06 09:45:00,
2013-07-06 05:00:00,70.2,62.0,29.61,SE,146,6.0,12.0,76,0.00,,,0.00,weatherlink.com 1.10,2013-07-06 10:00:00,
2013-07-06 05:16:00,69.9,62.0,29.61,ESE,120,9.0,14.0,77,0.00,,,0.00,weatherlink.com 1.10,2013-07-06 10:16:00,
2013-07-06 05:31:00,69.8,62.0,29.62,SE,132,10.0,14.0,77,0.00,,,0.00,weatherlink.com 1.10,2013-07-06 10:31:00,
2013-07-06 05:46:00,69.7,63.0,29.62,ESE,107,9.0,13.0,78,0.00,,,0.00,weatherlink.com 1.10,2013-07-06 10:46:00,
2013-07-06 06:02:00,69.8,63.0,29.62,South,177,9.0,16.0,78,0.00,,,0.00,weatherlink.com 1.10,2013-07-06 11:02:00,
2013-07-06 06:16:00,70.0,63.0,29.62,SE,131,11.0,17.0,77,0.00,,,0.00,weatherlink.com 1.10,2013-07-06 11:16:00,
2013-07-06 06:31:00,70.3,63.0,29.62,SE,146,8.0,16.0,77,0.00,,,0.00,weatherlink.com 1.10,2013-07-06 11:31:00,
2013-07-06 06:46:00,70.8,63.0,29.61,SE,127,11.0,17.0,76,0.00,,,0.00,weatherlink.com 1.10,2013-07-06 11:46:00,
2013-07-06 07:01:00,70.9,63.0,29.61,SE,135,16.0,18.0,76,0.00,,,0.00,weatherlink.com 1.10,2013-07-06 12:01:00,
2013-07-06 07:16:00,70.9,63.0,29.62,SE,134,9.0,17.0,76,0.00,,,0.00,weatherlink.com 1.10,2013-07-06 12:16:00,
2013-07-06 07:31:00,71.3,63.0,29.61,SSE,167,10.0,14.0,76,0.00,,,0.00,weatherlink.com 1.10,2013-07-06 12:31:00,
2013-07-06 07:46:00,72.3,64.0,29.62,SE,126,9.0,15.0,75,0.00,,,0.00,weatherlink.com 1.10,2013-07-06 12:46:00,
2013-07-06 08:01:00,73.0,64.0,29.61,South,169,7.0,18.0,74,0.00,,,0.00,weatherlink.com 1.10,2013-07-06 13:01:00,
2013-07-06 08:16:00,73.7,65.0,29.61,SE,134,9.0,17.0,75,0.00,,,0.00,weatherlink.com 1.10,2013-07-06 13:16:00,
2013-07-06 08:31:00,74.6,65.0,29.61,SSE,163,11.0,18.0,72,0.00,,,0.00,weatherlink.com 1.10,2013-07-06 13:31:00,
2013-07-06 08:46:00,75.7,66.0,29.61,SE,141,11.0,17.0,71,0.00,,,0.00,weatherlink.com 1.10,2013-07-06 13:46:00,
2013-07-06 09:01:00,77.0,67.0,29.61,SE,142,12.0,24.0,70,0.00,,,0.00,weatherlink.com 1.10,2013-07-06 14:01:00,
2013-07-06 09:16:00,78.4,67.0,29.60,SE,125,11.0,19.0,68,0.00,,,0.00,weatherlink.com 1.10,2013-07-06 14:16:00,
2013-07-06 09:31:00,78.6,67.0,29.59,SSE,148,14.0,20.0,67,0.00,,,0.00,weatherlink.com 1.10,2013-07-06 14:31:00,
2013-07-06 09:46:00,78.3,66.0,29.59,South,179,11.0,20.0,67,0.00,,,0.00,weatherlink.com 1.10,2013-07-06 14:46:00,
2013-07-06 10:02:00,78.9,67.0,29.60,SE,124,13.0,17.0,68,0.00,,,0.00,weatherlink.com 1.10,2013-07-06 15:02:00,
2013-07-06 10:16:00,79.3,67.0,29.60,SSE,158,9.0,17.0,67,0.00,,,0.00,weatherlink.com 1.10,2013-07-06 15:16:00,
2013-07-06 10:31:00,81.0,68.0,29.59,SSE,159,15.0,18.0,65,0.00,,,0.00,weatherlink.com 1.10,2013-07-06 15:31:00,
2013-07-06 10:46:00,81.9,68.0,29.59,SSE,149,9.0,19.0,63,0.00,,,0.00,weatherlink.com 1.10,2013-07-06 15:46:00,
2013-07-06 11:01:00,82.3,66.0,29.58,SSE,153,15.0,20.0,59,0.00,,,0.00,weatherlink.com 1.10,2013-07-06 16:01:00,
2013-07-06 11:17:00,83.0,68.0,29.59,SSE,154,12.0,20.0,60,0.00,,,0.00,weatherlink.com 1.10,2013-07-06 16:17:00,
2013-07-06 11:31:00,83.6,69.0,29.59,SSE,160,8.0,19.0,61,0.00,,,0.00,weatherlink.com 1.10,2013-07-06 16:31:00,
2013-07-06 11:46:00,82.8,68.0,29.60,SSE,160,8.0,22.0,62,0.00,,,0.00,weatherlink.com 1.10,2013-07-06 16:46:00,
2013-07-06 12:01:00,83.4,68.0,29.59,South,173,9.0,17.0,60,0.00,,,0.00,weatherlink.com 1.10,2013-07-06 17:01:00,
2013-07-06 12:16:00,84.2,69.0,29.59,SSE,158,7.0,22.0,61,0.00,,,0.00,weatherlink.com 1.10,2013-07-06 17:16:00,
2013-07-06 12:31:00,84.2,69.0,29.59,SE,141,15.0,18.0,60,0.00,,,0.00,weatherlink.com 1.10,2013-07-06 17:31:00,
2013-07-06 12:47:00,84.8,69.0,29.58,SSW,195,9.0,17.0,60,0.00,,,0.00,weatherlink.com 1.10,2013-07-06 17:47:00,
2013-07-06 13:02:00,85.5,69.0,29.58,SE,136,8.0,17.0,59,0.00,,,0.00,weatherlink.com 1.10,2013-07-06 18:02:00,
2013-07-06 13:17:00,85.5,70.0,29.57,SSE,154,9.0,20.0,61,0.00,,,0.00,weatherlink.com 1.10,2013-07-06 18:17:00,
2013-07-06 13:32:00,86.1,70.0,29.57,SE,132,13.0,18.0,59,0.00,,,0.00,weatherlink.com 1.10,2013-07-06 18:32:00,
2013-07-06 14:32:00,86.5,70.0,29.57,ESE,109,12.0,21.0,59,0.00,,,0.00,weatherlink.com 1.10,2013-07-06 19:32:00,
2013-07-06 14:47:00,87.2,70.0,29.57,SSE,148,17.0,22.0,57,0.00,,,0.00,weatherlink.com 1.10,2013-07-06 19:47:00,
2013-07-06 15:32:00,85.6,69.0,29.57,South,183,11.0,21.0,58,0.00,,,0.00,weatherlink.com 1.10,2013-07-06 20:32:00,
2013-07-06 15:47:00,84.8,68.0,29.56,SSE,158,12.0,27.0,58,0.00,,,0.00,weatherlink.com 1.10,2013-07-06 20:47:00,
2013-07-06 16:02:00,85.2,69.0,29.56,SSE,152,18.0,27.0,59,0.00,,,0.00,weatherlink.com 1.10,2013-07-06 21:02:00,
2013-07-06 16:32:00,84.3,68.0,29.56,SSE,148,12.0,24.0,58,0.00,,,0.00,weatherlink.com 1.10,2013-07-06 21:32:00,
2013-07-06 16:47:00,84.0,69.0,29.56,SSE,153,14.0,20.0,60,0.00,,,0.00,weatherlink.com 1.10,2013-07-06 21:47:00,
2013-07-06 17:17:00,84.8,69.0,29.55,SE,131,18.0,25.0,60,0.00,,,0.00,weatherlink.com 1.10,2013-07-06 22:17:00,
2013-07-06 17:32:00,84.6,70.0,29.55,SSE,155,13.0,24.0,61,0.00,,,0.00,weatherlink.com 1.10,2013-07-06 22:32:00,
2013-07-06 17:47:00,84.6,69.0,29.55,SSE,166,15.0,22.0,59,0.00,,,0.00,weatherlink.com 1.10,2013-07-06 22:47:00,
2013-07-06 18:02:00,84.6,70.0,29.55,South,172,8.0,18.0,61,0.00,,,0.00,weatherlink.com 1.10,2013-07-06 23:02:00,
2013-07-06 18:17:00,84.5,69.0,29.54,SE,138,14.0,20.0,60,0.00,,,0.00,weatherlink.com 1.10,2013-07-06 23:17:00,
2013-07-06 18:47:00,83.9,69.0,29.55,SSW,196,17.0,18.0,61,0.00,,,0.00,weatherlink.com 1.10,2013-07-06 23:47:00,
2013-07-06 19:17:00,83.0,70.0,29.55,SE,127,9.0,17.0,65,0.00,,,0.00,weatherlink.com 1.10,2013-07-07 00:17:00,
2013-07-06 19:47:00,81.0,69.0,29.55,SSE,149,14.0,18.0,68,0.00,,,0.00,weatherlink.com 1.10,2013-07-07 00:47:00,
2013-07-06 20:02:00,80.4,70.0,29.55,SE,141,10.0,16.0,70,0.00,,,0.00,weatherlink.com 1.10,2013-07-07 01:02:00,
2013-07-06 20:17:00,79.7,70.0,29.55,SSE,150,8.0,15.0,71,0.00,,,0.00,weatherlink.com 1.10,2013-07-07 01:17:00,
2013-07-06 20:32:00,78.9,69.0,29.55,SSE,148,11.0,15.0,72,0.00,,,0.00,weatherlink.com 1.10,2013-07-07 01:32:00,
2013-07-06 20:47:00,78.1,69.0,29.56,SE,146,9.0,14.0,73,0.00,,,0.00,weatherlink.com 1.10,2013-07-07 01:47:00,
2013-07-06 21:17:00,77.0,68.0,29.57,SE,131,7.0,12.0,74,0.00,,,0.00,weatherlink.com 1.10,2013-07-07 02:17:00,
2013-07-06 22:17:00,75.1,67.0,29.59,SE,124,7.0,12.0,77,0.00,,,0.00,weatherlink.com 1.10,2013-07-07 03:17:00,
2013-07-06 22:47:00,74.7,67.0,29.60,SSE,155,6.0,9.0,77,0.00,,,0.00,weatherlink.com 1.10,2013-07-07 03:47:00,
2013-07-06 23:02:00,74.7,67.0,29.60,SE,146,8.0,10.0,77,0.00,,,0.00,weatherlink.com 1.10,2013-07-07 04:02:00,
2013-07-06 23:17:00,74.6,67.0,29.61,SE,145,3.0,9.0,77,0.00,,,0.00,weatherlink.com 1.10,2013-07-07 04:17:00,
2013-07-06 23:32:00,74.4,67.0,29.61,SE,124,6.0,9.0,77,0.00,,,0.00,weatherlink.com 1.10,2013-07-07 04:32:00,
2013-07-06 23:47:00,74.4,66.0,29.60,ESE,110,10.0,13.0,76,0.00,,,0.00,weatherlink.com 1.10,2013-07-07 04:47:00,